NSS-11 (AAP-1)

Last updated on Sun May 19 2024 00:02:37 GMT+0000 (Coordinated Universal Time)

1 26554U 00059A 24139.56120125 .00000037 00000+0 00000+0 0 9995 2 26554 0.1576 87.1091 0003210 340.1284 187.5366 1.00273296 33672
UTC large
Height (km)
Speed (km/s)
/
Latitude / Longitude
Inclination (degrees)
Orbital Period (minutes)
Azimuth
Elevation
Range (km)
Doppler Factor

Next 0 passes for location: London (51.5072 / 0.1276)

Sorry there are no passes over London.